FW3058 Fairhope AL US current weather conditions

sailwx.info

Wind from 055 at 0 knots gusting 2

Air temperature 9.4° C
Dewpoint 4.0° C

Last reported at 2020-Jan-29 08:03 UTC.
Time now 2020-Jan-29 09:13 UTC

Location: N 30°33' W 087°53'.
View on Google Maps.

See reports from other nearby stations

  
Tides and Currents Weather Stations Pressure Air Temp Water Temp Dewpoint Dewpoint Depression Visibility Wind Speed Wind Dir Waves Ship Positions
date/time (UTC)wind fromknots sea level pressurealtimeterstation pressurevisibilityair tempwater tempwave heightnotes
2020-Jan-29 08:03 055 0 gusting 2 9.4
2020-Jan-29 07:47 055 9.4
2020-Jan-29 07:32 055 9.4
2020-Jan-29 07:16 055 9.4
2020-Jan-29 07:01 055 0 gusting 3 9.4
2020-Jan-29 06:47 342 8.9
2020-Jan-29 06:31 342 8.9
2020-Jan-29 06:16 330 8.3
2020-Jan-29 06:01 311 8.3
2020-Jan-29 05:46 311 8.9
2020-Jan-29 05:31 310 8.9
2020-Jan-29 05:16 310 0 gusting 1 8.9
2020-Jan-29 05:01 310 8.9
2020-Jan-29 04:46 310 8.9
2020-Jan-29 04:31 310 8.3
2020-Jan-29 04:16 310 8.3
2020-Jan-29 04:01 310 7.8
2020-Jan-29 03:45 310 7.8
2020-Jan-29 03:31 310 8.3
2020-Jan-29 03:16 310 8.3
2020-Jan-29 03:02 310 8.3
2020-Jan-29 02:46 310 8.3
2020-Jan-29 02:31 310 8.3
2020-Jan-29 02:16 310 8.9
2020-Jan-29 01:46 310 9.4
2020-Jan-29 01:30 310 9.4
2020-Jan-29 01:15 310 10.0
2020-Jan-29 01:01 310 10.0
2020-Jan-29 00:45 310 10.6
2020-Jan-29 00:30 310 11.1
2020-Jan-29 00:15 310 12.2
2020-Jan-29 00:00 310 12.2
2020-Jan-28 23:46 310 13.3
2020-Jan-28 23:31 310 13.9
2020-Jan-28 23:15 310 14.4
2020-Jan-28 23:01 310 15.0
2020-Jan-28 22:45 310 15.0
2020-Jan-28 22:30 290 0 gusting 2 15.0
2020-Jan-28 22:15 292 15.0
2020-Jan-28 22:00 307 0 gusting 3 15.6
2020-Jan-28 21:45 280 0 gusting 4 15.6
2020-Jan-28 21:30 278 1 gusting 4 16.1
2020-Jan-28 21:15 286 1 gusting 5 16.1
2020-Jan-28 21:00 294 1 gusting 4 16.1
2020-Jan-28 20:45 326 0 gusting 4 16.1
2020-Jan-28 20:34 205 0 gusting 3 16.1
2020-Jan-28 20:19 292 0 gusting 6 15.6
2020-Jan-28 20:04 234 1 gusting 6 15.6
2020-Jan-28 19:46 300 2 gusting 6 15.6
2020-Jan-28 19:31 294 0 gusting 6 16.1
2020-Jan-28 19:17 355 0 gusting 5 16.1
2020-Jan-28 19:02 175 0 gusting 6 17.2
2020-Jan-28 18:49 063 2 gusting 6 17.8
2020-Jan-28 18:33 211 2 gusting 4 17.2
2020-Jan-28 18:16 300 1 gusting 3 17.2
2020-Jan-28 18:02 218 0 gusting 7 16.7
2020-Jan-28 17:47 130 1 gusting 4 16.7
2020-Jan-28 17:33 096 2 gusting 6 16.1
2020-Jan-28 17:16 061 2 gusting 8 15.6
2020-Jan-28 17:01 051 3 gusting 7 15.6
2020-Jan-28 16:46 078 3 gusting 7 15.0
2020-Jan-28 16:31 057 2 gusting 8 14.4
2020-Jan-28 16:15 066 1 gusting 7 13.9
2020-Jan-28 16:01 076 2 gusting 7 13.3
2020-Jan-28 15:45 090 1 gusting 5 12.8
2020-Jan-28 15:30 065 1 gusting 6 11.7
2020-Jan-28 15:15 053 1 gusting 9 11.1
2020-Jan-28 15:00 065 1 gusting 4 10.6
2020-Jan-28 14:48 058 1 gusting 3 9.4
2020-Jan-28 14:32 054 1 gusting 3 8.3
2020-Jan-28 14:17 051 1 gusting 3 7.2
2020-Jan-28 14:02 060 0 gusting 4 6.7